Location: Unspecified
(53.2757°N, 0.0000°E)
Time: 00:28:47
(UTC+00:00)

Vanguard 1 - Visible Passes

Search period start: 04 April 2026 00:00
Search period end: 14 April 2026 00:00
Orbit: 654 x 3817 km, 34.2° (Epoch: 28 March)

Date Brightness Start Highest point End Pass type
(mag) Time Alt. Az. Time Alt. Az. Time Alt. Az.
4 Apr 13.0 01:49:59 20° SSE 01:51:36 20° SSE 01:59:43 10° ESE visible
4 Apr 12.4 04:02:29 12° SW 04:12:21 26° S 04:19:35 10° SE visible
5 Apr 12.8 02:07:36 23° S 02:10:40 24° SSE 02:19:26 10° ESE visible
5 Apr 12.4 04:20:06 10° SW 04:31:20 27° S 04:38:34 10° SE visible
6 Apr 13.4 00:12:39 14° SE 00:12:39 14° SE 00:16:22 10° ESE visible
6 Apr 12.7 02:25:08 24° SSW 02:29:44 27° SSE 02:38:52 10° ESE visible
6 Apr 12.3 04:39:05 10° WSW 04:50:17 27° SSW 04:57:26 10° SE visible
7 Apr 13.2 00:30:08 19° SE 00:30:08 19° SE 00:37:00 10° ESE visible
7 Apr 12.6 02:42:38 24° SSW 02:48:48 30° S 02:58:07 10° ESE visible
8 Apr 13.0 00:47:33 24° SSE 00:47:33 24° SSE 00:56:59 10° ESE visible
8 Apr 12.5 03:00:02 22° SW 03:07:51 32° S 03:17:13 10° ESE visible
9 Apr 12.9 01:04:52 28° SSE 01:05:25 28° SSE 01:16:36 10° ESE visible
9 Apr 12.5 03:17:21 20° SW 03:26:52 33° S 03:36:13 10° SE visible
9 Apr 13.5 23:09:38 15° ESE 23:09:38 15° ESE 23:13:06 10° ESE visible
10 Apr 12.8 01:22:06 31° S 01:24:28 32° SSE 01:36:00 10° ESE visible
10 Apr 12.4 03:34:35 16° WSW 03:45:50 33° S 03:55:06 10° SE visible
10 Apr 13.3 23:26:47 20° SE 23:26:47 20° SE 23:33:32 10° ESE visible
11 Apr 12.7 01:39:14 31° SSW 01:43:32 34° S 01:55:15 10° ESE visible
11 Apr 12.5 03:51:42 12° WSW 04:04:45 32° SSW 04:13:52 10° SE visible
11 Apr13.921:31:20E21:31:20E21:01:55Svisible
11 Apr 13.1 23:43:47 26° SE 23:43:47 26° SE 23:53:27 10° ESE visible
12 Apr 12.6 01:56:14 30° SSW 02:02:36 36° S 02:14:22 10° ESE visible
12 Apr 12.5 04:09:36 10° WSW 04:23:36 30° SSW 04:32:30 10° SE visible
12 Apr13.721:48:11ESE21:48:11ESE21:21:42Svisible
13 Apr 13.0 00:00:37 31° SSE 00:00:37 31° SSE 00:13:04 10° ESE visible
13 Apr 12.6 02:13:02 27° SW 02:21:37 38° S 02:33:22 10° ESE visible
13 Apr 12.6 04:29:06 10° WSW 04:42:21 28° SSW 04:50:58 10° SSE visible
13 Apr 13.5 22:04:47 15° ESE 22:04:47 15° ESE 22:08:42 10° ESE visible
